Location: Lake Almanor
(40.2485°N, 121.1442°W)
Time: 12:27:13
(UTC-07:00)

OTV 5 (USA 277) - Visible Passes

Search period start: 26 April 2018 00:00
Search period end: 06 May 2018 00:00
Orbit: 308 x 325 km, 54.5° (Epoch: 25 April)

Date Brightness Start Highest point End Pass type
(mag) Time Alt. Az. Time Alt. Az. Time Alt. Az.
28 Apr ? 22:42:10 10° N 22:42:13 10° N 22:42:13 10° N visible
30 Apr ? 21:37:12 10° N 21:38:09 11° NNE 21:38:50 11° NE visible
01 May ? 21:50:36 10° NNW 21:52:35 21° NNE 21:52:35 21° NNE visible
02 May ? 22:04:34 10° NW 22:06:21 33° NNW 22:06:21 33° NNW visible
03 May ? 20:45:18 10° N 20:46:59 15° NNE 20:48:40 10° ENE visible
03 May ? 22:18:52 10° WNW 22:20:09 23° WNW 22:20:09 23° WNW visible
04 May ? 20:59:01 10° NNW 21:01:29 30° NE 21:03:06 16° E visible
04 May ? 22:33:52 10° W 22:33:58 11° W 22:33:58 11° W visible
05 May ? 21:13:06 10° NW 21:15:49 89° NW 21:16:59 30° SE visible
